Regional Weather Roundup
Issued by NWS

Home | Current Version | Previous Version | Text Only | Print | Product List | Glossary Off
Versions: 1 2 3 4 5 6 7 8 9 10 11 12 13 14 15 16 17 18 19 20 21 22 23 24 25 26 27 28 29 30 31 32 33 34 35 36 37 38 39 40 41 42 43 44 45 46 47 48 49 50

960
ASUS45 KBOI 260710
RWRID

IDAHO REGIONAL WEATHER ROUNDUP
NATIONAL WEATHER SERVICE BOISE ID
1200 AM MST SUN FEB 26 2017

NOTE: "FAIR" INDICATES FEW OR NO CLOUDS BELOW 12000 FEET
WITH NO SIGNIFICANT WEATHER AND/OR OBSTRUCTIONS TO VISIBILITY

IDZ012-014-260800-
SOUTHWEST IDAHO


CITY           SKY/WX    TMP DP  RH WIND       PRES   REMARKS
BOISE          CLOUDY    30  20  66 SE9       29.96F WCI  22
CALDWELL       PTCLDY    27  21  78 E7        29.97F WCI  19
MOUNTAIN HOME  PTCLDY    24  21  89 SE6       29.96F WCI  17
$$

IDZ016-017-260800-
SOUTHCENTRAL IDAHO


CITY           SKY/WX    TMP DP  RH WIND       PRES   REMARKS
BURLEY         PTCLDY    23  12  62 S12       29.94F WCI  12
JEROME           N/A    N/A N/A N/A MISG      29.96F
TWIN FALLS     CLEAR     19   7  59 S17       29.95F WCI   4
$$

IDZ019>023-260800-
SOUTHEAST IDAHO


CITY           SKY/WX    TMP DP  RH WIND       PRES   REMARKS
IDAHO FALLS    CLOUDY    10   8  92 SW6       29.91S WCI   0
POCATELLO      CLOUDY    20   9  62 S14       29.93F WCI   7
REXBURG        CLOUDY    11   9  92 SW3       29.89F
$$

IDZ006-010-011-018-031-032-260800-
CENTRAL IDAHO MOUNTAINS


CITY           SKY/WX    TMP DP  RH WIND       PRES   REMARKS
MCCALL         CLOUDY    19  10  68 CALM      29.83F
HAILEY         CLEAR      9   3  78 NW9       29.91S WCI  -5
STANLEY          N/A     10   5  80 SE5       29.83F WCI   2
SALMON         CLOUDY    27  10  50 SW10      29.86F WCI  17
CHALLIS        MOCLDY    17   7  64 CALM      29.85F
$$

IDZ002-004-006-007-026-260800-
NORTHERN IDAHO


CITY           SKY/WX    TMP DP  RH WIND       PRES   REMARKS
LEWISTON       CLOUDY    34  26  72 SE5       29.89F WCI  30
LOWELL           N/A     31  28  89 CALM      29.97F
COEUR D`ALENE  FLURRIES  30  27  88 S10       29.82F WCI  21
MULLAN PASS    LGT SNOW  15  14  95 VRB6      29.66F VSB 3/4 WCI   6
$$




USA.gov is the U.S. government's official web portal to all federal, state and local government web resources and services.